User: anonymous   Login
Location: *
(40.7873°S, 98.7174°E)
Time: 07:49:06
(UTC+00:00)
Language:

Cosmos 1842 Rocket - Orbit

View from above orbital plane
View from above orbital plane
View from above satellite
View from above satellite

Ground track
Ground track

The orbit data is extracted from the following two-line orbital elements,

1 17912U 87038B   22230.33238910  .00000288  00000-0  32202-4 0  9995
2 17912  82.4995  78.5118 0021299 129.3219 230.9889 14.83242524886498
Epoch (UTC): 18 August 2022 07:58:38
Eccentricity: 0.0021299
inclination: 82.4995°
perigee height: 604 km
apogee height: 634 km
right ascension of ascending node: 78.5118°
argument of perigee: 129.3219°
revolutions per day: 14.83242524
mean anomaly at epoch: 230.9889°
orbit number at epoch: 88649

The dashed part of the orbit path shows where the satellite is in the earth's shadow,  

DLR